DELTA 1 DEB, 10747

Orbit data source: Space-Track

DELTA 1 DEB, 10747 is space debris in SSO originally from a launch on Thu, 29 Jul 1976 UTC launched from the Air Force Western Test Range (AFWTR). Debris objects in space refer to the collection of defunct objects orbiting the Earth. Examples of debris include non-operational satellites, rocket bodies, and fragments generated from explosions, collisions, or faulty payload assembly.

Loading next visibility...
Identifier
10747, 1976-077AU
Orbit
SSO
Country
Flag of USUS
Related business
Manufacturer
Unknown
Mission
Spacecraft
Bus & Motor
Unknown
Mass
Unknown
Launch date (UTC)
1976-07-29 (49 years ago)
Launch vehicle
Unknown
Launch site
Air Force Western Test Range (AFWTR)
Object type
Payload
Rocket body
Debris
Shape & HBR
Unknown shape, 0.1 m
Radar Cross Section
Small (<0.1 m²)

Expand to show TLE details & history
Last TLE update: 8 hours ago

TLE from 8 hours ago
0 DELTA 1 DEB
1 10747U 76077AU  25291.30272693  .00003907  00000-0  47984-2 0  9990
2 10747 101.1103 245.7044 0129931 265.1981 234.2222 13.62745081375370
Epoch: 2025-10-18T07:15Z
TLE epoch observation values (Epoch: 2025-10-18T07:15:55.606Z)
Latitude
40.90901°
Longitude
-60.56635°
Altitude
1,088.533 km
Speed
7.284 km/s
True Right ascension
05h 01m 48s
True Declination
40° 44' 47"
Sunlit
Object was in full shadow at epoch
Visualization orbit readout
Latitude
Unknown
Longitude
Unknown
Altitude
Unknown
Speed
Unknown
Apparent Right ascension
Unknown
Apparent Declination
Unknown
Sunlit
N/A
Visualization observer readout
Local Sidereal Time
10:32:28
Azimuth
Unknown
Elevation
Unknown
Doppler factor
Unknown
Orbital elements
Apogee altitude
1,119.259 km
Perigee altitude
926.929 km
Semi-major axis
7,401.231 km
Eccentricity
0.01299
Inclination
101.1103°
RAAN
245.7044°
Arg. of periapsis
265.1981°
True anomaly
233.02572°
Mean anomaly
234.2222°
Eccentric anomaly
233.62282°
Mean motion
3.40869 °/min
Orbital period
105.61 mins
BSTAR
0.0047984
Loading maneuver chart data...
Computing Atmospheric mass density...
Loading historical data...
Loading historical data...
Loading historical data...
Loading historical data...
Loading historical data...
Loading historical data...
Loading historical data...

Documentation

Showing up to 5 results
|